Temperature
16 16 16 17 17 16 16 15 15 15 15 16 16 16 17 17 17 17 17 17 17 17 18 18 18 18 18 17 17 17 17 17 16 16 16 15 15 15 15 15 14 14 14 14
16 16 16 17 17 16 16 16 15 16 16 16 17 17 16 17 17 17 17 17 17 17 17 17 17 17 17 17 17 17 17 16 16 16 16 15 15 15 15 14 14 14 14 14
14 15 16 16 17 17 17 16 16 16 16 16 15 15 16 16 16 17 17 17 17 17 17 17 17 17 17 17 17 16 16 16 16 16 15 15 15 15 14 14 14 14 14 13
13 15 16 16 17 17 17 16 15 16 16 16 16 16 17 17 17 17 16 16 16 16 16 17 17 16 16 16 16 16 16 16 16 15 15 15 15 14 14 14 14 14 13 13
12 14 15 16 16 16 16 16 15 15 15 15 15 16 16 17 17 17 17 17 16 16 17 16 16 16 16 16 16 16 16 16 15 15 15 15 14 14 14 14 14 13 13 13
12 14 15 16 17 17 16 16 16 15 15 15 15 13 14 16 16 16 16 16 16 16 16 16 16 16 16 16 16 16 15 15 15 15 15 14 14 14 14 13 13 13 13 13
12 13 14 15 16 16 16 15 16 16 16 15 15 15 16 16 16 16 16 16 16 16 16 16 15 15 15 15 15 15 15 15 15 14 14 14 14 14 13 13 13 13 13 13
11 13 14 15 15 14 15 16 16 16 16 16 16 16 16 16 16 16 16 16 16 16 15 15 15 15 15 15 15 15 15 14 14 14 14 14 14 13 13 13 13 12 12 12
12 13 14 15 15 16 16 16 16 16 16 16 15 15 15 15 15 15 15 15 15 15 15 15 14 14 14 14 14 14 14 14 14 14 14 13 13 13 13 13 12 12 12 12
11 12 14 15 15 16 16 16 16 16 16 16 15 15 15 15 15 15 14 14 14 14 14 14 14 14 14 14 14 14 14 14 14 13 13 13 13 13 12 12 12 12 11 11
11 12 13 15 15 15 16 16 16 16 15 15 15 15 15 14 14 14 14 14 14 14 14 14 13 13 13 13 13 13 13 13 13 13 13 13 12 12 12 12 12 11 11 11
12 13 13 14 15 15 15 15 15 15 15 15 15 14 14 14 14 14 14 14 14 13 13 13 13 13 13 13 13 13 13 13 13 12 12 12 12 12 11 11 11 11 11 10
14 14 14 14 14 14 15 15 15 15 15 15 15 14 14 14 14 14 13 13 13 13 13 13 13 13 13 12 12 12 12 12 12 12 12 12 11 11 11 11 10 10 10 10
14 14 13 14 14 14 14 14 14 14 14 14 14 14 14 13 13 13 13 13 13 13 12 12 12 12 12 12 12 12 12 11 11 11 11 11 11 11 10 10 10 10 10 9
13 13 14 14 14 14 14 13 13 13 13 14 14 13 13 13 13 13 13 12 12 12 12 12 12 12 11 11 11 11 11 11 11 11 11 11 10 10 10 10 10 9 9 9
13 13 13 13 13 13 13 13 13 13 13 13 13 13 13 12 12 12 12 12 11 11 11 11 11 11 11 11 11 11 11 10 10 10 10 10 10 10 9 9 9 9 9 9
12 12 12 12 12 12 12 13 12 12 12 12 12 12 12 12 12 12 11 11 11 11 11 11 11 11 10 10 10 10 10 10 10 10 10 9 9 9 9 9 9 8 8 8
12 12 12 12 12 12 12 12 12 12 12 12 12 11 11 11 11 11 11 11 11 10 10 10 10 10 10 10 10 9 9 9 9 9 9 9 9 9 9 8 8 8 8 8
11 11 11 11 11 11 11 11 11 12 11 11 11 11 11 11 11 11 10 10 10 10 10 10 10 9 9 9 9 9 9 9 9 9 8 8 8 8 8 8 8 8 8 7
11 11 11 11 11 11 11 11 11 11 11 11 11 10 10 10 10 10 10 10 10 10 10 9 9 9 9 9 9 8 8 8 8 8 8 8 8 8 8 8 8 7 7 7
11 10 10 10 10 10 10 10 10 10 10 10 10 10 10 10 10 9 9 9 9 9 9 9 9 9 8 8 8 8 8 8 7 7 7 7 7 7 7 7 7 7 7 7
10 10 10 10 10 10 10 10 10 10 10 10 9 9 9 9 9 9 9 9 9 9 9 9 8 8 8 8 8 8 8 7 7 7 7 7 7 7 7 7 7 6 6 6
9 9 9 9 9 9 9 9 9 9 9 9 9 9 9 9 9 9 8 8 8 8 8 8 8 8 8 8 7 7 7 7 7 7 6 6 6 6 6 6 6 6 6 6
9 9 9 9 9 9 9 9 9 9 8 8 8 8 8 8 8 8 8 8 8 8 8 8 8 7 7 7 7 7 7 7 6 6 6 6 6 6 6 6 5 5 5 5
8 8 8 8 8 8 8 8 8 8 8 8 8 8 8 8 8 8 8 7 7 7 7 7 7 7 7 7 7 7 6 6 6 6 5 5 5 5 5 5 5 5 5 5
8 8 8 8 8 7 7 7 7 7 7 7 7 7 7 7 7 7 7 7 7 7 7 7 7 7 7 7 6 6 6 6 6 5 5 5 5 5 5 5 4 4 4 4
7 7 7 7 7 7 7 7 7 7 6 6 6 6 6 6 6 6 6 6 6 6 6 6 6 6 6 6 6 6 6 5 5 5 5 5 5 5 4 4 4 4 4 4
Wind_Speed
5 4 3 5 5 5 5 7 7 7 7 8 6 5 3 2 1 1 1 1 2 3 2 2 2 2 3 3 4 5 5 5 5 5 4 4 3 3 3 3 3 3 3 2
2 2 3 5 6 6 7 6 7 6 8 7 4 1 1 1 2 1 1 2 2 2 2 3 3 3 3 3 4 5 5 5 5 5 4 4 4 3 3 3 2 3 3 2
3 4 3 5 6 7 5 6 7 8 8 3 1 2 3 2 2 3 3 2 3 3 4 4 4 4 4 4 3 5 5 4 5 6 5 5 5 4 4 3 3 3 2 2
0 2 5 7 4 5 6 6 6 6 5 4 4 3 3 3 3 3 2 3 3 2 3 3 3 3 3 4 4 4 4 4 5 5 6 5 5 5 4 3 3 3 2 3
3 2 7 7 3 3 4 4 3 4 3 1 0 2 2 1 2 3 4 3 3 3 3 2 3 3 3 3 4 3 4 4 5 6 6 6 6 5 4 4 4 3 3 3
3 3 5 6 4 2 2 4 3 3 3 2 3 1 4 3 1 1 1 1 1 1 1 2 2 3 4 4 4 5 5 5 4 5 6 7 7 5 4 4 4 4 3 3
5 5 7 6 3 2 3 6 3 3 4 4 4 5 4 2 1 1 1 1 2 2 1 2 2 3 4 4 5 5 4 3 3 4 5 6 5 4 4 4 4 3 3 2
5 5 8 3 3 4 6 3 2 2 3 3 3 1 1 1 1 1 0 1 2 2 1 0 2 4 4 4 4 3 3 3 3 3 4 4 5 4 4 5 5 4 3 1
7 7 4 3 4 3 2 3 3 2 2 3 2 2 2 1 1 1 1 1 2 2 1 1 1 4 5 4 3 3 4 3 3 3 3 4 5 5 4 4 4 4 3 2
5 7 6 5 4 3 3 4 3 3 2 2 3 3 2 2 2 1 1 2 2 2 1 1 1 2 3 3 3 4 4 4 3 3 3 3 3 4 4 4 4 4 4 3
6 8 6 6 5 4 3 2 1 2 3 3 3 4 4 3 3 3 2 2 2 3 3 2 2 2 2 2 4 4 4 4 3 3 3 3 3 3 4 4 5 5 5 5
8 8 6 8 7 4 4 5 4 4 4 3 4 5 4 4 3 3 2 2 2 2 2 2 1 1 1 1 3 4 4 4 3 3 3 3 3 1 1 1 2 3 4 4
8 7 7 8 7 5 5 5 4 5 6 5 5 4 4 3 3 3 3 3 3 3 2 2 1 1 0 1 3 4 4 4 3 3 3 3 3 3 1 1 2 1 2 3
7 5 6 7 7 6 5 4 3 3 4 4 4 4 4 3 2 3 4 3 3 2 2 2 1 1 1 2 3 4 3 3 3 3 3 3 3 3 3 3 1 0 1 1
8 7 7 6 4 4 3 2 2 3 3 3 3 4 4 4 4 4 3 2 2 2 1 1 1 1 1 2 3 4 3 3 2 2 3 3 3 3 3 3 2 1 0 1
6 5 5 4 5 4 3 3 3 4 4 3 3 4 4 3 2 2 2 3 3 3 3 2 2 2 2 2 3 3 3 3 3 3 3 3 3 3 3 3 2 2 2 1
4 5 5 4 5 5 4 4 5 5 4 4 4 3 3 3 2 2 2 3 3 3 3 3 3 2 2 3 4 3 3 3 4 3 3 3 3 3 3 3 3 2 2 2
6 6 6 6 5 5 4 4 4 4 4 4 3 3 4 4 5 4 3 2 2 1 2 3 3 2 2 3 4 3 3 3 3 3 2 2 2 2 2 3 3 3 2 2
5 5 5 5 5 5 4 5 5 4 4 3 4 4 5 5 5 4 3 3 3 3 3 2 2 2 2 3 3 3 3 3 3 2 2 2 2 2 2 2 3 2 2 2
4 4 4 4 4 4 5 5 4 4 4 4 5 4 4 4 4 4 4 3 4 4 4 3 3 3 3 4 4 3 4 4 3 2 2 2 2 2 2 2 3 3 2 2
3 3 3 3 4 3 4 4 4 4 4 5 6 6 6 5 5 5 4 3 4 4 3 4 3 3 3 4 4 4 4 4 3 3 3 3 2 2 2 2 3 2 2 2
2 2 3 2 2 3 3 2 3 3 4 5 5 6 5 5 5 4 4 4 4 4 3 3 4 4 4 4 3 4 4 4 3 3 3 3 3 3 3 3 3 3 2 2
2 2 2 2 2 2 2 1 2 3 4 5 6 6 6 5 5 5 4 4 4 4 3 3 5 6 6 4 4 4 4 4 4 4 3 3 3 3 3 3 3 2 2 2
2 2 2 1 1 0 1 2 1 2 3 3 4 5 5 4 3 3 3 4 5 5 4 5 6 6 6 4 4 4 4 4 4 4 4 3 3 3 3 3 3 2 2 2
2 2 1 1 1 1 1 1 1 1 1 1 2 3 3 3 4 3 3 4 5 4 3 5 6 5 4 4 4 4 4 4 4 4 4 3 3 3 3 3 3 2 2 2
2 2 2 2 2 2 2 1 1 2 2 1 1 1 1 2 3 3 3 3 4 4 3 3 4 4 4 4 4 4 4 4 4 3 4 3 3 3 3 3 3 3 3 2
2 1 1 1 1 2 2 2 2 3 3 3 2 2 2 2 2 3 3 3 3 3 3 3 3 3 3 4 4 3 3 3 3 3 3 3 3 3 3 3 3 2 2 3
Wind_Direction
238 245 229 241 246 214 205 202 207 236 239 261 264 258 268 273 244 135 123 148 175 180 169 162 159 166 167 170 168 164 158 169 183 185 181 172 168 164 158 152 158 156 149 146
291 278 256 266 262 230 229 220 224 247 261 258 259 216 263 257 167 174 189 189 194 184 177 181 184 184 176 172 177 167 170 185 181 168 164 167 171 161 150 151 150 143 153 158
283 311 351 278 243 225 223 213 198 226 245 264 268 233 229 230 196 198 207 216 216 206 204 206 208 195 190 187 170 168 175 180 176 172 171 178 171 156 162 167 157 154 168 166
234 32 248 252 249 218 226 242 226 233 253 241 236 233 222 195 189 200 215 238 237 226 226 223 211 203 185 160 160 170 176 179 178 175 176 171 164 169 177 172 167 172 177 185
147 225 277 291 262 196 206 263 243 230 250 257 110 50 324 241 200 211 218 228 227 217 221 207 201 191 163 162 163 169 188 192 187 180 176 172 176 184 183 174 178 182 179 184
153 190 245 255 266 235 144 273 265 199 203 175 111 95 267 278 250 234 233 233 199 167 119 179 206 172 164 174 178 198 208 203 190 180 179 183 185 184 178 175 184 179 181 191
187 219 258 258 274 102 159 253 276 200 196 176 188 218 245 276 264 227 227 192 157 140 128 201 187 164 172 181 205 212 196 178 172 178 183 182 175 174 166 161 157 161 168 190
172 204 250 251 136 173 224 261 236 210 199 194 216 247 289 277 245 193 80 127 140 146 124 182 174 167 181 207 217 182 159 159 170 174 176 173 164 166 160 154 153 158 158 168
198 219 253 241 222 245 216 222 230 216 226 199 217 241 260 268 240 233 229 177 162 158 135 46 199 185 199 220 191 158 151 163 169 163 161 160 165 165 158 160 165 172 170 183
247 263 263 263 264 279 263 244 249 224 199 190 221 234 240 246 242 230 237 203 174 152 154 263 266 224 218 206 177 159 160 164 158 149 146 149 154 161 166 172 174 178 182 192
257 271 284 275 263 270 286 282 268 252 226 218 219 236 231 224 222 221 224 214 189 184 196 231 270 259 235 194 166 161 155 157 156 156 155 155 159 171 181 192 188 188 197 191
242 249 243 266 269 259 258 262 243 237 256 249 227 229 225 224 223 218 218 206 201 201 199 227 271 291 256 179 159 154 151 158 160 157 157 153 147 115 77 184 191 190 182 182
242 260 256 268 270 257 243 249 252 239 232 241 238 218 214 218 218 211 206 197 196 199 199 202 223 301 289 148 150 152 160 164 161 161 162 162 160 162 163 32 65 132 171 184
249 252 267 263 262 259 246 248 251 256 246 233 222 204 199 209 211 214 207 202 188 173 180 183 170 276 246 162 153 157 162 167 161 169 173 172 176 182 182 179 180 297 311 248
260 247 247 257 260 258 242 216 220 254 251 243 216 200 196 201 214 220 210 176 150 147 184 184 193 258 229 166 157 157 159 170 171 168 168 170 170 172 178 182 182 193 85 11
263 257 247 243 245 246 233 214 225 246 241 233 223 220 214 209 198 190 191 170 164 188 206 204 218 230 194 173 160 156 160 157 152 160 161 161 160 165 175 181 184 191 210 212
247 258 253 246 241 238 232 231 227 235 235 230 225 212 190 166 160 179 197 190 184 202 209 210 221 215 181 171 164 164 157 159 143 145 160 171 173 176 183 183 191 205 228 221
237 242 242 235 231 236 243 241 237 235 232 233 212 186 183 183 192 202 201 181 161 230 253 227 206 183 175 171 164 158 155 154 157 166 172 179 182 179 181 192 202 211 237 235
256 256 258 251 239 230 235 239 238 235 228 209 197 200 199 197 194 192 177 164 178 225 255 226 182 167 175 172 151 148 148 149 152 160 173 183 179 178 189 200 208 215 219 219
269 267 267 266 259 240 236 237 233 232 223 198 187 185 192 199 187 177 174 196 219 225 219 196 181 187 182 172 154 152 153 156 162 171 179 195 200 204 212 211 214 219 218 222
284 285 280 274 272 261 247 237 227 229 227 199 189 194 198 198 187 179 179 220 245 221 201 193 186 192 183 176 165 158 159 165 174 182 190 202 211 216 226 224 220 222 226 231
297 295 284 278 277 288 279 248 224 219 211 198 193 187 182 185 185 188 205 221 227 208 197 192 189 193 190 178 171 169 172 176 181 184 191 200 206 212 223 226 225 227 228 231
270 270 269 263 262 277 293 270 222 208 202 198 195 192 193 198 194 193 223 228 209 209 204 203 200 194 186 177 176 178 180 183 187 192 199 206 208 210 220 224 226 224 219 225
273 275 274 276 286 353 322 312 294 231 204 206 202 196 188 189 209 221 217 215 210 211 208 204 198 197 184 180 178 184 189 193 196 199 202 205 207 209 218 223 224 224 223 225
279 275 272 237 197 243 262 294 322 284 202 208 215 209 200 196 203 211 201 202 206 207 204 205 201 199 187 182 184 190 195 200 200 197 197 201 207 210 220 225 222 222 225 228
273 268 262 241 228 228 235 236 243 242 207 204 248 235 198 184 184 194 196 194 191 197 198 194 192 194 189 186 189 195 197 199 201 201 202 207 209 211 218 223 222 223 226 230
283 268 273 289 273 240 231 231 229 233 219 205 227 237 200 183 181 188 187 190 191 188 189 192 190 187 179 178 181 188 191 190 189 192 201 209 214 220 221 220 225 227 228 227
Height
1528 1526 1526 1526 1525 1526 1530 1532 1537 1531 1527 1519 1515 1514 1513 1513 1513 1513 1514 1515 1516 1517 1518 1519 1521 1522 1524 1526 1527 1529 1530 1531 1532 1534 1536 1537 1539 1540 1540 1541 1542 1542 1543 1543
1527 1524 1524 1524 1522 1523 1523 1524 1525 1524 1521 1513 1512 1512 1512 1512 1512 1513 1513 1514 1515 1516 1517 1517 1519 1520 1522 1523 1525 1526 1528 1529 1531 1532 1534 1535 1536 1537 1538 1539 1540 1540 1541 1541
1534 1528 1524 1527 1519 1518 1517 1516 1518 1520 1515 1510 1511 1511 1510 1511 1511 1512 1513 1513 1514 1514 1515 1516 1517 1518 1519 1521 1523 1524 1525 1527 1529 1530 1531 1533 1534 1535 1536 1537 1537 1538 1539 1539
1537 1532 1537 1522 1510 1510 1512 1512 1511 1510 1509 1508 1508 1508 1508 1509 1510 1510 1511 1512 1512 1513 1513 1514 1515 1516 1517 1518 1520 1522 1523 1524 1526 1527 1528 1530 1531 1532 1533 1534 1535 1535 1536 1537
1540 1538 1530 1517 1509 1509 1511 1511 1508 1507 1507 1507 1507 1507 1508 1508 1508 1509 1510 1510 1511 1511 1512 1512 1513 1514 1515 1516 1517 1518 1520 1521 1523 1524 1525 1526 1528 1529 1530 1531 1532 1533 1533 1534
1537 1535 1533 1517 1506 1505 1508 1512 1505 1504 1505 1506 1507 1511 1508 1506 1507 1507 1508 1508 1509 1509 1510 1510 1511 1512 1512 1513 1514 1515 1517 1518 1520 1521 1522 1523 1525 1526 1527 1528 1529 1530 1531 1531
1535 1533 1524 1509 1505 1505 1517 1513 1503 1502 1503 1504 1505 1506 1506 1505 1505 1506 1506 1506 1507 1507 1508 1508 1509 1509 1510 1510 1511 1513 1514 1516 1517 1518 1519 1520 1522 1523 1524 1526 1527 1527 1528 1528
1531 1531 1523 1505 1505 1508 1507 1502 1501 1501 1501 1502 1502 1503 1503 1503 1504 1504 1504 1504 1505 1505 1506 1506 1506 1507 1507 1508 1509 1510 1511 1513 1514 1515 1516 1517 1518 1520 1521 1522 1523 1524 1524 1525
1518 1514 1505 1502 1501 1501 1501 1500 1499 1500 1500 1501 1501 1501 1501 1501 1502 1502 1502 1502 1503 1503 1504 1504 1504 1504 1505 1506 1507 1507 1508 1510 1511 1512 1513 1514 1515 1516 1517 1518 1519 1520 1521 1521
1511 1504 1501 1500 1499 1498 1498 1498 1497 1498 1499 1499 1499 1499 1499 1499 1500 1500 1500 1501 1501 1501 1501 1501 1502 1502 1502 1503 1504 1504 1505 1506 1508 1509 1509 1511 1512 1513 1514 1514 1515 1516 1517 1518
1507 1501 1498 1496 1496 1496 1496 1495 1495 1495 1496 1497 1497 1497 1497 1497 1497 1498 1498 1499 1499 1499 1499 1499 1499 1499 1500 1500 1501 1502 1502 1503 1505 1506 1507 1508 1509 1510 1511 1512 1513 1514 1514 1515
1502 1496 1496 1493 1492 1493 1493 1492 1493 1493 1493 1493 1494 1494 1495 1495 1495 1495 1496 1496 1496 1496 1497 1497 1497 1497 1497 1498 1498 1499 1500 1501 1502 1502 1504 1505 1506 1507 1508 1509 1510 1511 1511 1512
1493 1492 1491 1489 1489 1489 1489 1489 1490 1490 1489 1489 1490 1491 1491 1492 1492 1493 1493 1493 1493 1494 1494 1495 1495 1495 1495 1495 1496 1496 1497 1498 1499 1500 1501 1502 1502 1503 1504 1506 1507 1507 1508 1508
1488 1488 1486 1485 1485 1485 1485 1485 1486 1486 1486 1486 1486 1487 1488 1489 1489 1490 1490 1490 1491 1491 1492 1492 1492 1492 1492 1493 1493 1493 1494 1495 1496 1497 1498 1499 1499 1500 1501 1502 1502 1502 1504 1504
1483 1483 1482 1480 1481 1481 1481 1481 1482 1482 1482 1483 1483 1484 1484 1485 1485 1486 1487 1488 1488 1488 1489 1489 1489 1489 1490 1490 1490 1490 1491 1492 1493 1494 1494 1495 1496 1497 1498 1498 1499 1499 1499 1500
1478 1478 1477 1477 1477 1477 1477 1478 1478 1478 1479 1479 1480 1480 1481 1481 1482 1483 1484 1484 1485 1485 1485 1485 1485 1486 1487 1487 1487 1487 1488 1489 1490 1491 1491 1492 1492 1493 1494 1495 1495 1495 1496 1496
1474 1473 1473 1473 1473 1473 1474 1474 1475 1475 1475 1476 1476 1476 1477 1477 1478 1479 1480 1481 1481 1481 1482 1482 1482 1483 1484 1484 1484 1484 1485 1486 1486 1487 1488 1488 1489 1490 1490 1491 1491 1492 1492 1493
1469 1469 1469 1468 1468 1469 1470 1470 1471 1471 1471 1472 1472 1472 1473 1474 1474 1475 1476 1477 1478 1478 1478 1479 1479 1480 1480 1481 1481 1481 1482 1482 1483 1484 1484 1485 1486 1486 1487 1488 1488 1488 1489 1489
1464 1464 1464 1464 1464 1465 1465 1466 1466 1466 1467 1468 1468 1468 1469 1470 1471 1472 1473 1474 1474 1474 1474 1475 1476 1476 1477 1478 1478 1478 1479 1479 1480 1480 1481 1482 1482 1483 1484 1484 1484 1485 1485 1485
1460 1460 1459 1459 1459 1460 1460 1460 1461 1461 1462 1463 1464 1464 1465 1466 1467 1469 1470 1470 1470 1471 1471 1472 1472 1473 1473 1474 1475 1475 1476 1476 1477 1477 1478 1479 1479 1479 1480 1480 1481 1481 1481 1481
1455 1455 1454 1454 1454 1454 1455 1455 1456 1456 1457 1458 1459 1460 1461 1462 1464 1465 1465 1466 1467 1467 1468 1468 1469 1469 1470 1471 1472 1472 1473 1473 1474 1474 1475 1475 1476 1476 1476 1477 1477 1477 1477 1477
1452 1451 1451 1451 1450 1450 1450 1450 1450 1451 1452 1453 1454 1456 1457 1458 1459 1460 1461 1462 1462 1463 1464 1464 1465 1466 1467 1468 1468 1469 1470 1470 1471 1471 1472 1472 1472 1472 1473 1473 1473 1473 1473 1473
1449 1448 1448 1448 1447 1446 1446 1446 1446 1447 1447 1448 1450 1451 1452 1453 1454 1455 1456 1458 1459 1459 1460 1460 1461 1462 1463 1464 1465 1466 1466 1467 1467 1467 1468 1468 1469 1469 1469 1469 1469 1469 1469 1468
1446 1445 1445 1445 1444 1443 1442 1442 1443 1443 1444 1445 1446 1447 1448 1449 1450 1451 1452 1453 1454 1455 1455 1456 1457 1458 1459 1460 1461 1462 1462 1463 1463 1464 1464 1464 1464 1465 1465 1465 1465 1465 1465 1464
1442 1442 1441 1441 1440 1440 1440 1440 1440 1440 1441 1441 1442 1443 1444 1445 1446 1447 1448 1448 1449 1450 1451 1452 1453 1454 1455 1456 1456 1457 1458 1459 1459 1459 1460 1460 1460 1460 1460 1460 1460 1460 1460 1460
1439 1438 1438 1438 1437 1437 1437 1437 1437 1437 1437 1438 1438 1439 1440 1441 1442 1442 1443 1444 1444 1445 1446 1447 1448 1449 1450 1451 1452 1453 1453 1454 1455 1455 1455 1455 1456 1456 1456 1456 1456 1456 1456 1455
1435 1435 1435 1434 1434 1434 1434 1434 1434 1434 1434 1434 1435 1435 1436 1437 1438 1438 1438 1439 1440 1441 1442 1443 1444 1445 1446 1447 1447 1448 1449 1449 1450 1450 1451 1451 1451 1452 1452 1452 1452 1452 1451 1451